Regional Weather Roundup
Issued by NWS

Home | Current Version | Previous Version | Graphics & Text | Print | Product List | Glossary On
Versions: 1 2 3 4 5 6 7 8 9 10 11 12 13 14 15 16 17 18 19 20 21 22 23 24 25 26 27 28 29 30 31 32 33 34 35 36 37 38 39 40 41 42 43 44 45 46 47 48 49 50
000
ASUS43 KIND 220059
RWRIN

WEATHER ROUNDUP FOR INDIANA
NATIONAL WEATHER SERVICE INDIANAPOLIS IN
900 PM EDT TUE OCT 21 2014

NOTE: "FAIR" INDICATES FEW OR NO CLOUDS BELOW 12,000 FEET WITH NO
SIGNIFICANT WEATHER AND/OR OBSTRUCTIONS TO VISIBILITY.

* - STATION DOES NOT REPORT WEATHER SUCH AS PRECIPITATION OR FOG.

+ - STATION NOT QUALITY CONTROLLED BY THE NATIONAL WEATHER SERVICE.
    USE DATA WITH CAUTION...ESPECIALLY DEWPOINT AND RELATIVE
    HUMIDITY OBSERVATIONS.

INZ001>003-010>013-019-020-220200-
NORTHWEST INDIANA

CITY           SKY/WX    TMP DP  RH WIND       PRES   REMARKS
GARY /AIRPORT/ CLOUDY    52  39  62 NE16      30.23R
VALPARAISO     NOT AVBL

$$

LMZ046-743>745-220200-
SOUTHERN LAKE MICHIGAN

STATION/POSITION TIME  TEMP WIND        PRES
                       AIR  DIR/SP/G
                 (UTC) (F)  (DEG/KT/KT) (MB)
MICHIGAN CITY    0000   50  360/ 16/ 19   N/A

$$

INZ004-005-014>016-021>024-220200-
NORTH CENTRAL INDIANA

CITY           SKY/WX    TMP DP  RH WIND       PRES   REMARKS
ELKHART        CLOUDY    46  36  66 N7        30.22R
GOSHEN         CLOUDY    47  38  71 N7        30.20R
PERU/GRISSOM   CLOUDY    50  43  76 N8        30.18R
SOUTH BEND     PTCLDY    44  36  73 NE5       30.22R

$$

INZ006>009-017-018-025>027-220200-
NORTHEAST INDIANA

CITY           SKY/WX    TMP DP  RH WIND       PRES   REMARKS
ANGOLA *+      CLOUDY    45  27  49 N3        30.20R
FORT WAYNE     CLOUDY    48  35  60 N10       30.20R

$$

INZ028-029-035-036-043>045-051>053-220200-
WEST CENTRAL INDIANA

CITY           SKY/WX    TMP DP  RH WIND       PRES   REMARKS
GREENCASTLE +  CLEAR     48  43  81 N6        30.18R
LAFAYETTE      CLEAR     45  39  79 N6        30.20R
TERRE HAUTE    MOCLDY    52  43  71 N10       30.18R

$$

INZ030>032-037>040-046>048-054>057-064-065-220200-
CENTRAL INDIANA

CITY           SKY/WX    TMP DP  RH WIND       PRES   REMARKS
COLUMBUS       CLEAR     46  43  87 N5        30.16R
INDIANAPOLIS   NOT AVBL
-EAGLE CREEK   MOCLDY    50  43  77 N9        30.16R
KOKOMO *+      CLOUDY    50  39  66 NE13      30.19R
MT COMFORT *+  CLOUDY    46  41  81 N3        30.16S
SHELBYVILLE    CLEAR     47  40  76 N3        30.15R

$$

INZ033-034-041-042-049-050-058-059-220200-
EAST CENTRAL INDIANA

CITY           SKY/WX    TMP DP  RH WIND       PRES   REMARKS
MUNCIE         CLOUDY    49  39  68 NE9       30.17R

$$

INZ060-061-067>069-081>083-085>088-220200-
SOUTHWEST INDIANA

CITY           SKY/WX    TMP DP  RH WIND       PRES   REMARKS
EVANSVILLE     CLEAR     51  40  65 NE5       30.15R
HUNTINGBURG *+ CLEAR     52  37  58 N6        30.15R

$$

INZ062-063-066-070>080-084-089>092-220200-
SOUTH CENTRAL AND SOUTHEAST INDIANA

CITY           SKY/WX    TMP DP  RH WIND       PRES   REMARKS
BLOOMINGTON    CLEAR     50  42  74 CALM      30.16R

$$




USA.gov is the U.S. government's official web portal to all federal, state and local government web resources and services.